Location: Austin
(30.3000°N, 97.7500°W)
Time: 07:29:42
(UTC-05:00)

TSX-5 - Pass Details

Date: 19 September 2023
Orbit: 399 x 1232 km, 68.9° (Epoch: 26 September)

Event Time Altitude Azimuth Distance (km) Brightness Sun altitude
Rises 06:07:16 0° 336° (NNW) 2,779 7.3 -15.9°
Reaches altitude 10° 06:09:41 10° 334° (NNW) 1,761 6.2 -15.4°
Maximum altitude 06:13:29 74° 249° (WSW) 480 3.3 -14.6°
Drops below altitude 10° 06:16:42 10° 164° (SSE) 1,498 6.1 -13.9°
Sets 06:18:37 0° 163° (SSE) 2,317 7.1 -13.5°
